Weather History for KCON - August, 2013

Change the Weather History Date:

Wednesday, August 28, 2013

  Actual Average Record
Temperature  
Mean Temperature 74 °F 66 °F  
Max Temperature 87 °F 79 °F 96 °F (1977)
Min Temperature 60 °F 54 °F 38 °F (1986)
Degree Days  
Heating Degree Days 0 2  
Month to date heating degree days 25 26  
Since 1 June heating degree days 99 128  
Since 1 July heating degree days 27 43  
Cooling Degree Days 9 3  
Month to date cooling degree days 81 130  
Year to date cooling degree days 477 404  
Since 1 June cooling degree days 456 386  
Growing Degree Days 24 (Base 50)    
Moisture  
Dew Point 65 °F    
Average Humidity 74    
Maximum Humidity 100    
Minimum Humidity 48    
Precipitation  
Precipitation 0.47 in 0.09 in 2.66 in (2011)
Month to date precipitation 1.97 2.90  
Year to date precipitation 28.21 25.99  
Snow  
Snow 0.00 in 0.00 in 0.00 in (2002)
Month to date snowfall 0.0 0.0  
Since 1 June snowfall 0.0 0.0  
Since 1 July snowfall 0.0 0.0  
Snow Depth 0.00 in    
Sea Level Pressure  
Sea Level Pressure 29.90 in    
Wind  
Wind Speed 3 mph (North)    
Max Wind Speed 18 mph    
Max Gust Speed 21 mph    
Visibility 6 miles    
Events Rain , Thunderstorm    
T = Trace of Precipitation, MM = Missing Value Source: NWS Daily Summary

Daily Weather History Graph

Daily Weather History Graph

Search for Another Location

Airport or City:

Trip Planner

Search our weather history database for the weather conditions in past years. The results will help you decide how hot, cold, wet, or windy it might be!

Date:

Astronomy

Aug. 28, 2013 Rise Set
Actual Time 6:06 AM EDT 7:27 PM EDT
Civil Twilight 5:36 AM EDT 7:56 PM EDT
Nautical Twilight 5:00 AM EDT 8:32 PM EDT
Astronomical Twilight 4:22 AM EDT 9:10 PM EDT
Moon 11:51 PM EDT (8/28) 2:07 PM EDT (8/28)
Length of Visible Light 14h 20m
Length of Day
13h 21m
Waning Gibbous, 47% of the Moon is Illuminated
Aug 28
Waning Gibbous
Sep 5
New
Sep 12
First Quarter
Sep 19
Full
Sep 26
Last Quarter

Hourly Weather History & Observations

Time (EDT) Temp. Heat Index Dew Point Humidity Pressure Visibility Wind Dir Wind Speed Gust Speed Precip Events Conditions
12:51 AM 64.9 °F - 64.0 °F 97% 29.90 in 8.0 mi Calm Calm - N/A   Mostly Cloudy
1:51 AM 66.0 °F - 64.0 °F 93% 29.89 in 9.0 mi Calm Calm - N/A   Overcast
2:51 AM 63.0 °F - 63.0 °F 100% 29.88 in 7.0 mi Calm Calm - N/A   Clear
3:51 AM 62.1 °F - 62.1 °F 100% 29.87 in 4.0 mi Calm Calm - N/A   Clear
4:51 AM 61.0 °F - 60.1 °F 97% 29.88 in 8.0 mi Calm Calm - N/A   Clear
5:31 AM 60.8 °F - 60.8 °F 100% 29.89 in 4.0 mi Calm Calm - N/A   Partly Cloudy
5:41 AM 60.8 °F - 60.8 °F 100% 29.89 in 2.5 mi Calm Calm - N/A   Partly Cloudy
5:49 AM 60.8 °F - 60.8 °F 100% 29.90 in 6.0 mi Calm Calm - N/A   Partly Cloudy
5:51 AM 61.0 °F - 61.0 °F 100% 29.89 in 5.0 mi Calm Calm - N/A   Partly Cloudy
6:21 AM 60.8 °F - 60.8 °F 100% 29.91 in 4.0 mi Calm Calm - N/A   Mostly Cloudy
6:33 AM 62.6 °F - 62.6 °F 100% 29.91 in 1.8 mi NW 4.6 mph - N/A   Overcast
6:39 AM 62.6 °F - 62.6 °F 100% 29.91 in 0.8 mi Calm Calm - N/A   Overcast
6:51 AM 61.0 °F - 61.0 °F 100% 29.91 in 1.0 mi Calm Calm - N/A   Overcast
6:55 AM 60.8 °F - 60.8 °F 100% 29.91 in 2.0 mi Calm Calm - N/A   Overcast
6:58 AM 60.8 °F - 60.8 °F 100% 29.91 in 1.2 mi Calm Calm - N/A   Overcast
7:06 AM 62.6 °F - 62.6 °F 100% 29.91 in 0.8 mi Calm Calm - N/A   Overcast
7:09 AM 62.6 °F - 62.6 °F 100% 29.91 in 1.5 mi Calm Calm - N/A   Overcast
7:17 AM 64.4 °F - 62.6 °F 94% 29.91 in 2.5 mi Calm Calm - N/A   Mostly Cloudy
7:32 AM 64.4 °F - 64.4 °F 100% 29.91 in 3.0 mi Calm Calm - N/A   Mostly Cloudy
7:42 AM 64.4 °F - 62.6 °F 94% 29.91 in 2.5 mi Calm Calm - N/A   Mostly Cloudy
7:49 AM 64.4 °F - 64.4 °F 100% 29.91 in 3.0 mi Calm Calm - N/A   Mostly Cloudy
7:51 AM 64.9 °F - 64.0 °F 97% 29.91 in 3.0 mi Calm Calm - N/A   Mostly Cloudy
8:26 AM 68.0 °F - 64.4 °F 88% 29.91 in 7.0 mi West 3.5 mph - N/A   Scattered Clouds
8:51 AM 70.0 °F - 64.9 °F 84% 29.91 in 8.0 mi Calm Calm - N/A   Clear
9:51 AM 73.9 °F - 66.0 °F 76% 29.92 in 9.0 mi Calm Calm - N/A   Clear
10:51 AM 79.0 °F - 66.0 °F 64% 29.91 in 10.0 mi Variable 5.8 mph - N/A   Clear
11:51 AM 81.0 °F 83.0 °F 66.0 °F 60% 29.90 in 10.0 mi Variable 3.5 mph - N/A   Clear
12:51 PM 84.0 °F 86.3 °F 66.0 °F 55% 29.88 in 10.0 mi Variable 3.5 mph - N/A   Clear
1:51 PM 86.0 °F 87.6 °F 64.9 °F 49% 29.87 in 10.0 mi South 4.6 mph - N/A   Partly Cloudy
2:51 PM 84.9 °F 86.6 °F 64.9 °F 51% 29.86 in 10.0 mi South 9.2 mph - N/A   Partly Cloudy
3:51 PM 84.9 °F 86.1 °F 64.0 °F 49% 29.85 in 10.0 mi SSE 9.2 mph - N/A   Clear
4:17 PM 82.4 °F 84.6 °F 66.2 °F 58% 29.85 in 10.0 mi SSE 11.5 mph 16.1 mph N/A Thunderstorm Mostly Cloudy
4:51 PM 75.0 °F - 71.1 °F 87% 29.86 in 8.0 mi NE 9.2 mph 18.4 mph 0.00 in Rain , Thunderstorm Light Thunderstorms and Rain
5:02 PM 69.8 °F - 69.8 °F 100% 29.87 in 1.8 mi North 12.7 mph 20.7 mph 0.05 in Rain , Thunderstorm Heavy Thunderstorms and Rain
5:10 PM 69.8 °F - 69.8 °F 100% 29.88 in 1.0 mi NNW 5.8 mph - 0.21 in Rain , Thunderstorm Heavy Thunderstorms and Rain
5:15 PM 69.8 °F - 69.8 °F 100% 29.88 in 2.0 mi North 4.6 mph - 0.24 in Rain , Thunderstorm Thunderstorms and Rain
5:26 PM 71.6 °F - 69.8 °F 94% 29.88 in 4.0 mi NNW 6.9 mph - 0.25 in Rain , Thunderstorm Light Thunderstorms and Rain
5:34 PM 71.6 °F - 69.8 °F 94% 29.88 in 2.0 mi NW 5.8 mph - 0.26 in Rain , Thunderstorm Light Thunderstorms and Rain
5:44 PM 69.8 °F - 69.8 °F 100% 29.89 in 6.0 mi NW 8.1 mph - 0.26 in Rain , Thunderstorm Light Thunderstorms and Rain
5:51 PM 70.0 °F - 69.1 °F 97% 29.89 in 6.0 mi Calm Calm - 0.26 in Rain , Thunderstorm Light Thunderstorms and Rain
6:12 PM 71.6 °F - 69.8 °F 94% 29.89 in 5.0 mi Calm Calm - 0.01 in Rain Light Rain
6:51 PM 72.0 °F - 71.1 °F 97% 29.91 in 6.0 mi Calm Calm - 0.01 in   Overcast
7:51 PM 70.0 °F - 66.9 °F 90% 29.93 in 10.0 mi East 3.5 mph - N/A   Overcast
8:51 PM 69.1 °F - 66.9 °F 93% 29.94 in 9.0 mi ENE 3.5 mph - 0.03 in Rain Light Rain
9:51 PM 66.9 °F - 64.0 °F 90% 29.98 in 10.0 mi ENE 9.2 mph 17.3 mph 0.00 in   Overcast
10:24 PM 66.2 °F - 62.6 °F 88% 29.99 in 10.0 mi ENE 8.1 mph - 0.00 in Rain , Thunderstorm Light Rain
10:51 PM 64.9 °F - 64.0 °F 97% 29.99 in 10.0 mi Variable 3.5 mph - 0.00 in Rain Light Rain
11:22 PM 64.4 °F - 64.4 °F 100% 30.00 in 10.0 mi NW 6.9 mph - 0.00 in Rain , Thunderstorm Light Rain
11:51 PM 64.9 °F - 64.0 °F 97% 30.00 in 7.0 mi Calm Calm - 0.02 in Rain Light Rain